| time (UTC) | temp C | wind direction | speed KPH | gust KPH | rain 1hr cm | rain 24hr cm | rain mn cm | humidity % | barometer mb |
| 20260503211805 | 15 | 175 | 0.0 | 3.2 | 0.00 | 0.03 | 0.03 | 79 | 1009.9 |
| 20260503210904 | 15 | 175 | 0.0 | 4.8 | 0.00 | 0.03 | 0.03 | 78 | 1009.7 |
| 20260503210006 | 15 | 174 | 0.0 | 4.8 | 0.00 | 0.03 | 0.03 | 77 | 1009.6 |
| 20260503205405 | 15 | 173 | 0.0 | 4.8 | 0.00 | 0.03 | 0.03 | 77 | 1009.5 |
| 20260503204503 | 15 | 170 | 0.0 | 3.2 | 0.00 | 0.03 | 0.03 | 76 | 1009.5 |
| 20260503203817 | 15 | 169 | 0.0 | 3.2 | 0.00 | 0.03 | 0.03 | 75 | 1009.5 |
| 20260503202703 | 15 | 187 | 1.6 | 6.4 | 0.00 | 0.03 | 0.03 | 74 | 1009.3 |
| 20260503201806 | 16 | 238 | 0.0 | 4.8 | 0.00 | 0.03 | 0.03 | 72 | 1009.2 |
| 20260503200905 | 16 | 238 | 0.0 | 3.2 | 0.00 | 0.03 | 0.03 | 71 | 1009.1 |
| 20260503200005 | 16 | 238 | 0.0 | 1.6 | 0.00 | 0.03 | 0.03 | 71 | 1008.9 |
| 20260503195403 | 16 | 218 | 0.0 | 1.6 | 0.00 | 0.03 | 0.03 | 71 | 1008.9 |
| 20260503194504 | 16 | 211 | 0.0 | 3.2 | 0.00 | 0.03 | 0.03 | 70 | 1008.8 |
| 20260503193608 | 16 | 211 | 0.0 | 4.8 | 0.00 | 0.03 | 0.03 | 70 | 1008.8 |
| 20260503192705 | 16 | 211 | 0.0 | 1.6 | 0.00 | 0.03 | 0.03 | 69 | 1008.8 |
| 20260503191805 | 16 | 211 | 0.0 | 1.6 | 0.00 | 0.03 | 0.03 | 69 | 1008.7 |
| 20260503190908 | 17 | 211 | 0.0 | 4.8 | 0.00 | 0.03 | 0.03 | 69 | 1008.5 |
| 20260503190003 | 17 | 224 | 0.0 | 4.8 | 0.00 | 0.03 | 0.03 | 69 | 1008.4 |
| 20260503185619 | 17 | 226 | 0.0 | 4.8 | 0.00 | 0.03 | 0.03 | 69 | 1008.4 |
| 20260503184716 | 17 | 226 | 0.0 | 4.8 | 0.00 | 0.03 | 0.03 | 68 | 1008.4 |
| 20260503183605 | 17 | 215 | 0.0 | 3.2 | 0.00 | 0.03 | 0.03 | 68 | 1008.4 |
| 20260503182915 | 17 | 201 | 0.0 | 1.6 | 0.00 | 0.03 | 0.03 | 67 | 1008.1 |
| 20260503181805 | 17 | 201 | 0.0 | 3.2 | 0.00 | 0.03 | 0.03 | 65 | 1008.1 |
| 20260503180905 | 17 | 200 | 0.0 | 1.6 | 0.00 | 0.03 | 0.03 | 65 | 1008.1 |
| 20260503180217 | 17 | 200 | 0.0 | 3.2 | 0.00 | 0.03 | 0.03 | 65 | 1008.1 |
| 20260503175403 | 18 | 197 | 0.0 | 3.2 | 0.00 | 0.03 | 0.03 | 64 | 1008.1 |
| 20260503174505 | 18 | 197 | 0.0 | 3.2 | 0.00 | 0.03 | 0.03 | 65 | 1008.1 |
| 20260503173814 | 18 | 198 | 0.0 | 3.2 | 0.00 | 0.03 | 0.03 | 64 | 1008.1 |
| 20260503172705 | 18 | 205 | 1.6 | 4.8 | 0.00 | 0.03 | 0.03 | 64 | 1008.1 |
| 20260503171803 | 18 | 214 | 1.6 | 3.2 | 0.00 | 0.03 | 0.03 | 65 | 1008.1 |
| 20260503170906 | 18 | 263 | 0.0 | 6.4 | 0.00 | 0.03 | 0.03 | 65 | 1008.1 |
| 20260503150903 | 20 | 270 | 1.6 | 6.4 | 0.00 | 0.05 | 0.03 | 61 | 1008.2 |
| 20260503150214 | 20 | 286 | 1.6 | 6.4 | 0.00 | 0.05 | 0.03 | 62 | 1008.1 |
| 20260503131113 | 20 | 231 | 3.2 | 14.5 | 0.00 | 0.05 | 0.03 | 63 | 1008.7 |
| 20260503110217 | 17 | 192 | 1.6 | 9.7 | 0.00 | 0.05 | 0.03 | 70 | 1008.8 |
| 20260503080903 | 16 | 248 | 1.6 | 6.4 | 0.00 | 0.05 | 0.03 | 76 | 1008.8 |
| 20260503072703 | 14 | 244 | 1.6 | 9.7 | 0.00 | 0.05 | 0.03 | 82 | 1008.8 |
| 20260503071805 | 13 | 231 | 0.0 | 3.2 | 0.00 | 0.05 | 0.03 | 83 | 1008.8 |
| 20260503070905 | 13 | 229 | 0.0 | 1.6 | 0.00 | 0.05 | 0.03 | 84 | 1008.8 |
| 20260503054503 | 12 | 213 | 0.0 | 4.8 | 0.00 | 0.05 | 0.03 | 90 | 1008.6 |
| 20260503053605 | 12 | 210 | 0.0 | 3.2 | 0.00 | 0.05 | 0.03 | 90 | 1008.6 |
| 20260503052703 | 12 | 211 | 0.0 | 3.2 | 0.00 | 0.05 | 0.03 | 90 | 1008.6 |
| 20260503051804 | 12 | 211 | 0.0 | 4.8 | 0.00 | 0.05 | 0.03 | 90 | 1008.5 |
| 20260503050903 | 12 | 210 | 0.0 | 3.2 | 0.00 | 0.05 | 0.03 | 90 | 1008.3 |
| 20260503050216 | 12 | 210 | 0.0 | 1.6 | 0.00 | 0.05 | 0.03 | 90 | 1008.3 |
| 20260503045405 | 12 | 210 | 0.0 | 1.6 | 0.00 | 0.05 | 0.03 | 90 | 1008.2 |
| 20260503044505 | 12 | 0 | 0.0 | 0.0 | 0.00 | 0.05 | 0.03 | 89 | 1008.1 |
| 20260503043603 | 12 | 0 | 0.0 | 0.0 | 0.00 | 0.05 | 0.03 | 89 | 1008.2 |
| 20260503042703 | 12 | 210 | 0.0 | 1.6 | 0.00 | 0.05 | 0.03 | 89 | 1008.2 |
| 20260503041803 | 12 | 210 | 0.0 | 1.6 | 0.00 | 0.05 | 0.03 | 89 | 1008.2 |
| 20260503040904 | 12 | 210 | 0.0 | 3.2 | 0.00 | 0.05 | 0.03 | 88 | 1008.2 |
| 20260503040003 | 13 | 210 | 0.0 | 1.6 | 0.00 | 0.05 | 0.03 | 88 | 1008.1 |
| 20260503035613 | 13 | 0 | 0.0 | 0.0 | 0.00 | 0.05 | 0.03 | 88 | 1008.2 |
| 20260503034505 | 13 | 210 | 0.0 | 1.6 | 0.00 | 0.05 | 0.03 | 88 | 1008.2 |
| 20260503033603 | 13 | 210 | 0.0 | 1.6 | 0.00 | 0.05 | 0.03 | 88 | 1008.3 |
| 20260503032703 | 13 | 210 | 0.0 | 1.6 | 0.00 | 0.05 | 0.03 | 88 | 1008.2 |
| 20260503031805 | 13 | 210 | 0.0 | 3.2 | 0.00 | 0.05 | 0.03 | 88 | 1008.1 |
| 20260503030905 | 13 | 210 | 0.0 | 1.6 | 0.00 | 0.05 | 0.03 | 88 | 1008.2 |
| 20260503030005 | 13 | 210 | 0.0 | 1.6 | 0.00 | 0.05 | 0.03 | 88 | 1008.2 |
| 20260503025405 | 13 | 210 | 0.0 | 3.2 | 0.00 | 0.05 | 0.03 | 88 | 1008.3 |
| 20260503024503 | 13 | 210 | 0.0 | 3.2 | 0.00 | 0.05 | 0.03 | 88 | 1008.2 |
| 20260503023813 | 13 | 209 | 0.0 | 1.6 | 0.00 | 0.05 | 0.03 | 88 | 1008.4 |
| 20260503022915 | 13 | 209 | 0.0 | 3.2 | 0.00 | 0.05 | 0.03 | 88 | 1008.4 |
| 20260503022013 | 13 | 209 | 0.0 | 3.2 | 0.00 | 0.05 | 0.03 | 88 | 1008.4 |
| 20260503020905 | 13 | 209 | 0.0 | 3.2 | 0.00 | 0.05 | 0.03 | 88 | 1008.5 |
| 20260503020003 | 13 | 209 | 0.0 | 3.2 | 0.00 | 0.05 | 0.03 | 88 | 1008.6 |
| 20260503015404 | 13 | 208 | 0.0 | 3.2 | 0.00 | 0.05 | 0.03 | 88 | 1008.7 |
| 20260503014505 | 13 | 199 | 0.0 | 3.2 | 0.00 | 0.05 | 0.03 | 88 | 1008.8 |
| 20260503013603 | 13 | 198 | 0.0 | 3.2 | 0.00 | 0.05 | 0.03 | 88 | 1008.8 |
| 20260503012706 | 13 | 198 | 0.0 | 1.6 | 0.00 | 0.05 | 0.03 | 88 | 1008.9 |
| 20260503012013 | 13 | 198 | 0.0 | 1.6 | 0.00 | 0.05 | 0.03 | 88 | 1009.0 |
| 20260503010903 | 13 | 198 | 0.0 | 1.6 | 0.00 | 0.05 | 0.03 | 88 | 1009.1 |
| 20260503010005 | 13 | 202 | 0.0 | 3.2 | 0.00 | 0.05 | 0.03 | 88 | 1009.1 |
| 20260503005615 | 13 | 222 | 0.0 | 3.2 | 0.00 | 0.05 | 0.03 | 88 | 1009.2 |
| 20260503004504 | 13 | 250 | 0.0 | 6.4 | 0.00 | 0.05 | 0.03 | 88 | 1009.3 |
| 20260503003820 | 13 | 249 | 0.0 | 6.4 | 0.00 | 0.05 | 0.03 | 88 | 1009.2 |
| 20260503002704 | 13 | 232 | 0.0 | 6.4 | 0.00 | 0.05 | 0.03 | 88 | 1009.3 |
| 20260503001806 | 13 | 205 | 0.0 | 3.2 | 0.00 | 0.05 | 0.03 | 88 | 1009.5 |
| 20260503001116 | 13 | 208 | 0.0 | 4.8 | 0.03 | 0.05 | 0.03 | 88 | 1009.5 |
| 20260503000006 | 13 | 200 | 1.6 | 4.8 | 0.03 | 0.05 | 0.03 | 88 | 1009.5 |
| 20260502235405 | 13 | 215 | 1.6 | 6.4 | 0.03 | 0.05 | 0.03 | 87 | 1009.5 |
| 20260502234508 | 13 | 180 | 1.6 | 6.4 | 0.03 | 0.05 | 0.03 | 88 | 1009.6 |
| 20260502233815 | 13 | 173 | 1.6 | 8.0 | 0.03 | 0.05 | 0.03 | 88 | 1009.7 |
| 20260502232703 | 13 | 199 | 1.6 | 6.4 | 0.03 | 0.05 | 0.03 | 87 | 1009.9 |
| 20260502231803 | 14 | 231 | 1.6 | 4.8 | 0.03 | 0.05 | 0.03 | 87 | 1009.9 |
| 20260502230908 | 14 | 230 | 0.0 | 4.8 | 0.00 | 0.03 | 0.00 | 88 | 1009.8 |
| 20260502230005 | 14 | 262 | 1.6 | 9.7 | 0.00 | 0.03 | 0.00 | 88 | 1009.9 |
| 20260502225405 | 14 | 260 | 0.0 | 4.8 | 0.00 | 0.03 | 0.03 | 88 | 1009.8 |
| 20260502224506 | 14 | 150 | 0.0 | 4.8 | 0.00 | 0.03 | 0.03 | 88 | 1009.9 |
| 20260502222703 | 14 | 143 | 0.0 | 3.2 | 0.00 | 0.03 | 0.03 | 87 | 1010.0 |
| 20260502222015 | 14 | 143 | 0.0 | 3.2 | 0.00 | 0.03 | 0.03 | 87 | 1009.9 |
| 20260502220215 | 14 | 142 | 0.0 | 3.2 | 0.00 | 0.03 | 0.03 | 87 | 1010.2 |
| 20260502214714 | 14 | 140 | 0.0 | 1.6 | 0.00 | 0.03 | 0.03 | 87 | 1009.9 |
| 20260502212705 | 14 | 118 | 0.0 | 4.8 | 0.00 | 0.03 | 0.03 | 87 | 1010.0 |